Date String (YYYY-MM-DD hh:mm:ss) UTC,Instrument flags,Ambient pressure (hPa),Sample flow (lpm),Bypass flow (lpm),Sample temperature (°C),Ambient temperature (°C),ASC tube jacket temperature (°C),LED temperature (°C),Box temperature (°C),Sample RH (%),Span deviation,Mass concentration (μg/m³),Mass concentration (μg/m³),Mass concentration (μg/m³)
DateTimeUTC,F1_M11,P_M11,Q1_M11,Q2_M11,T1_M11,T2_M11,T3_M11,T4_M11,T5_M11,U1_M11,ZSPAN_M11,X0_M11,X2_M11,X1_M11
2022-08-09 00:00:00,,0829.0,5.01,0.00,29.6,27.7,00.0,38.3,31.4,31.8,0000.0,0009.10,0004.84,0004.26
2022-08-09 00:01:00,,0829.0,4.99,0.00,29.6,27.4,00.0,38.3,31.3,31.2,0000.0,0009.04,0004.80,0004.22
2022-08-09 00:02:00,,0829.0,5.01,0.00,29.5,27.4,00.0,38.3,31.3,31.7,0000.0,0009.12,0004.77,0004.19
2022-08-09 00:03:00,,0829.0,4.98,0.00,29.5,27.6,00.0,38.3,31.3,31.1,0000.0,0008.98,0004.75,0004.19
2022-08-09 00:04:00,,0829.0,5.02,0.00,29.5,27.8,00.0,38.3,31.4,31.3,0000.0,0008.99,0004.77,0004.19
2022-08-09 00:05:00,,0829.0,5.00,0.00,29.5,28.0,00.0,38.3,31.5,31.0,0000.0,0008.77,0004.72,0004.18
2022-08-09 00:06:00,,0829.0,5.00,0.00,29.6,28.2,00.0,38.3,31.6,30.3,0000.0,0008.13,0004.68,0004.16
2022-08-09 00:07:00,,0829.0,5.00,0.00,29.6,28.4,00.0,38.3,31.6,30.9,0000.0,0008.27,0004.67,0004.16
2022-08-09 00:08:00,,0829.0,5.00,0.00,29.7,28.2,00.0,38.3,31.6,31.1,0000.0,0008.47,0004.65,0004.16
2022-08-09 00:09:00,,0828.9,5.01,0.00,29.6,27.7,00.0,38.3,31.4,30.3,0000.0,0008.96,0004.68,0004.15
2022-08-09 00:10:00,,0829.0,5.00,0.00,29.6,27.4,00.0,38.3,31.3,30.5,0000.0,0009.04,0004.67,0004.14
2022-08-09 00:11:00,,0828.9,4.99,0.00,29.5,27.4,00.0,38.3,31.3,30.7,0000.0,0009.09,0004.68,0004.13
2022-08-09 00:12:00,,0828.9,5.01,0.00,29.5,27.5,00.0,38.3,31.3,30.3,0000.0,0009.25,0004.67,0004.13
2022-08-09 00:13:00,,0828.9,5.00,0.00,29.5,27.7,00.0,38.3,31.4,30.4,0000.0,0009.45,0004.70,0004.13
2022-08-09 00:14:00,,0828.9,5.00,0.00,29.5,28.0,00.0,38.3,31.4,30.0,0000.0,0010.01,0004.75,0004.15
2022-08-09 00:15:00,,0828.8,4.99,0.00,29.6,28.2,00.0,38.3,31.5,30.3,0000.0,0010.07,0004.73,0004.13
2022-08-09 00:16:00,,0828.9,5.01,0.00,29.6,28.3,00.0,38.3,31.6,30.0,0000.0,0010.04,0004.72,0004.12
2022-08-09 00:17:00,,0828.9,5.01,0.00,29.6,27.9,00.0,38.3,31.5,30.0,0000.0,0010.05,0004.73,0004.12
2022-08-09 00:18:00,,0829.1,5.01,0.00,29.6,27.4,00.0,38.3,31.4,29.8,0000.0,0009.81,0004.73,0004.12
2022-08-09 00:19:00,,0829.3,4.98,0.00,29.5,27.3,00.0,38.2,31.3,29.7,0000.0,0009.45,0004.74,0004.12
2022-08-09 00:20:00,,0829.2,5.01,0.00,29.5,27.4,00.0,38.2,31.2,29.6,0000.0,0009.57,0004.71,0004.12
2022-08-09 00:21:00,,0829.4,5.00,0.00,29.4,27.6,00.0,38.2,31.3,29.6,0000.0,0010.01,0004.70,0004.12
2022-08-09 00:22:00,,0829.2,5.00,0.00,29.5,27.8,00.0,38.2,31.3,29.1,0000.0,0014.43,0004.72,0004.12
2022-08-09 00:23:00,,0829.3,5.00,0.00,29.5,28.0,00.0,38.2,31.4,27.9,0000.0,0015.07,0004.73,0004.15
2022-08-09 00:24:00,,0829.2,5.01,0.00,29.5,28.2,00.0,38.3,31.5,27.4,0000.0,0014.98,0004.75,0004.17
2022-08-09 00:25:00,,0829.4,5.00,0.00,29.6,28.4,00.0,38.3,31.6,27.4,0000.0,0014.87,0004.75,0004.17
2022-08-09 00:26:00,,0829.4,4.99,0.00,29.6,28.3,00.0,38.3,31.6,27.0,0000.0,0016.11,0004.76,0004.19
2022-08-09 00:27:00,,0829.3,4.99,0.00,29.6,27.7,00.0,38.3,31.4,26.9,0000.0,0017.37,0004.81,0004.22
2022-08-09 00:28:00,,0829.3,5.01,0.00,29.6,27.4,00.0,38.3,31.3,27.1,0000.0,0017.38,0004.80,0004.24
2022-08-09 00:29:00,,0829.0,5.00,0.00,29.5,27.4,00.0,38.3,31.3,26.8,0000.0,0017.98,0004.80,0004.24
2022-08-09 00:30:00,,0828.9,4.99,0.00,29.5,27.5,00.0,38.3,31.3,27.3,0000.0,0018.56,0004.84,0004.25
2022-08-09 00:31:00,,0828.7,5.02,0.00,29.5,27.7,00.0,38.3,31.3,27.5,0000.0,0018.57,0004.91,0004.29
2022-08-09 00:32:00,,0828.7,5.00,0.00,29.5,27.9,00.0,38.3,31.4,27.1,0000.0,0018.41,0004.96,0004.30
2022-08-09 00:33:00,,0828.7,5.00,0.00,29.5,28.1,00.0,38.3,31.5,27.7,0000.0,0014.16,0004.97,0004.30
2022-08-09 00:34:00,,0828.7,5.00,0.00,29.6,28.3,00.0,38.3,31.6,27.4,0000.0,0014.07,0004.98,0004.29
2022-08-09 00:35:00,,0828.7,5.01,0.00,29.6,28.3,00.0,38.3,31.6,27.5,0000.0,0013.92,0004.97,0004.27
2022-08-09 00:36:00,,0828.7,5.00,0.00,29.6,27.7,00.0,38.3,31.4,27.4,0000.0,0013.53,0004.96,0004.27
2022-08-09 00:37:00,,0828.8,5.00,0.00,29.6,27.4,00.0,38.3,31.3,27.8,0000.0,0012.24,0005.00,0004.28
2022-08-09 00:38:00,,0828.7,5.01,0.00,29.5,27.3,00.0,38.2,31.3,28.2,0000.0,0011.35,0005.04,0004.29
2022-08-09 00:39:00,,0828.7,4.99,0.00,29.5,27.5,00.0,38.2,31.3,28.8,0000.0,0011.66,0005.10,0004.31
2022-08-09 00:40:00,,0828.7,5.01,0.00,29.5,27.7,00.0,38.2,31.3,29.1,0000.0,0011.22,0005.13,0004.33
2022-08-09 00:41:00,,0828.7,5.00,0.00,29.5,27.9,00.0,38.2,31.4,28.8,0000.0,0010.84,0005.11,0004.33
2022-08-09 00:42:00,,0828.7,5.00,0.00,29.5,28.1,00.0,38.3,31.5,28.0,0000.0,0010.79,0005.06,0004.33
2022-08-09 00:43:00,,0828.7,5.00,0.00,29.6,28.3,00.0,38.3,31.6,28.1,0000.0,0010.66,0005.06,0004.34
2022-08-09 00:44:00,,0828.7,5.00,0.00,29.6,28.3,00.0,38.3,31.6,28.9,0000.0,0010.64,0005.02,0004.35
2022-08-09 00:45:00,,0828.9,4.99,0.00,29.6,27.7,00.0,38.3,31.4,29.1,0000.0,0010.33,0005.02,0004.35
2022-08-09 00:46:00,,0829.2,5.01,0.00,29.5,27.3,00.0,38.3,31.3,29.5,0000.0,0010.35,0005.01,0004.36
2022-08-09 00:47:00,,0829.2,5.00,0.00,29.5,27.3,00.0,38.2,31.2,30.1,0000.0,0010.40,0005.04,0004.37
2022-08-09 00:48:00,,0829.1,4.99,0.00,29.4,27.4,00.0,38.2,31.2,30.6,0000.0,0010.28,0005.03,0004.39
2022-08-09 00:49:00,,0829.2,5.01,0.00,29.4,27.6,00.0,38.2,31.3,30.4,0000.0,0010.25,0005.00,0004.39
2022-08-09 00:50:00,,0829.1,5.00,0.00,29.4,27.8,00.0,38.2,31.4,31.6,0000.0,0010.42,0004.97,0004.38
2022-08-09 00:51:00,,0829.1,5.00,0.00,29.5,28.0,00.0,38.2,31.4,30.4,0000.0,0010.65,0004.96,0004.37
2022-08-09 00:52:00,,0829.2,4.99,0.00,29.5,28.2,00.0,38.3,31.5,29.3,0000.0,0010.35,0004.94,0004.37
2022-08-09 00:53:00,,0829.1,5.00,0.00,29.6,28.4,00.0,38.3,31.6,29.3,0000.0,0010.03,0004.98,0004.37
2022-08-09 00:54:00,,0828.9,4.99,0.00,29.6,28.2,00.0,38.3,31.5,29.9,0000.0,0009.87,0004.97,0004.35
2022-08-09 00:55:00,,0828.8,5.02,0.00,29.6,27.6,00.0,38.3,31.4,29.4,0000.0,0009.62,0005.00,0004.34
2022-08-09 00:56:00,,0828.7,4.99,0.00,29.5,27.3,00.0,38.3,31.3,30.0,0000.0,0009.30,0005.00,0004.34
2022-08-09 00:57:00,,0828.7,5.00,0.00,29.5,27.4,00.0,38.2,31.2,30.2,0000.0,0009.85,0004.98,0004.33
2022-08-09 00:58:00,,0829.0,4.99,0.00,29.4,27.5,00.0,38.2,31.2,31.0,0000.0,0010.00,0004.97,0004.31
2022-08-09 00:59:00,,0828.9,5.00,0.00,29.4,27.7,00.0,38.2,31.3,30.9,0000.0,0010.02,0004.96,0004.29
